星链-36658(STARLINK-36658)

导读

STARLINK-36658是美国SpaceX公司星链计划的卫星之一,于2026年2月16日发射。星链项目旨在构建全球卫星互联网星座,为全球偏远地区、海洋空域等提供高速宽带网络服务。该卫星加入后将进一步扩充星链星座规模,提升系统覆盖范围与服务稳定性,推动全球互联网络基础设施建设。

基本信息
目录编号:
67846
目录名称:
STARLINK-36658
国际标识:
2026-033AB
轨道中心:
EARTH
卫星名称:
星链-36658
卫星全名:
星链-36658(STARLINK-36658)
卫星状态:
在轨 (已飞行201 天)
发射日期:
2026-02-16 UTC
国别 :
美国 (US)
星等 :
--
轨道信息
数据来源 国际轨道数据
星历时间: 2026-09-05T14:13:47+0800
7小时前
查看轨道信息
半长轴: 6861.11km
偏心率: 0.0000394
轨道倾角: 42.999°
近地点辐角 211.217°
升交点赤经 333.220°
平近点角 148.865°
近地点: 482.702km
远地点: 483.244km
周期: 94.265分钟
每日圈数: 15.276056
详细信息
固有亮度:
5
最大亮度:
2.5
卫星平台:
Starlink V1.0
覆盖范围:
全球
运营商:
太空探索技术公司
运营商所在国:
美国
制造商(研发单位):
太空探索技术公司
制造商所在国:
美国
使用方式:
暂无
卫星简介
Starlink 计划是 SpaceX 推出的全球卫星互联网项目,通过发射低轨道卫星,为全球尤其是偏远地区提供高速、低延迟的互联网服务。自 2019 年起,Starlink 已部署数千颗卫星,旨在缩小全球数字鸿沟,推动互联网普及。该项目还为军事、航空等行业提供通信支持,带来广泛经济效益。
2D轨道图
3D轨道图
轨道高度分析图
轨道倾角分析图
轨道综合分析图
查看轨道综合分析图
交会数据列表
事件ID 空间交会对象 最接近时刻(TCA) 交会距离 交会风险概率(CRP) 交会风险指数(CRI) 操作
CDM_260907-231405-842406-784621
2026-09-07T
23:14:59+0000
0.519 km
远距离
1.479716E-4 高风险 0.78
CDM_260907-042305-960706-784621
2026-09-07T
04:23:18+0000
0.695 km
远距离
6.541786E-5 中风险 0.71
CDM_260906-031105-752306-784623
2026-09-06T
03:11:15+0000
1.028 km
极远距离
1.548972E-5 中风险 0.59
CDM_260906-114905-752306-784622
2026-09-06T
11:49:05+0000
1.077 km
极远距离
1.316464E-5 中风险 0.57
CDM_260907-154306-711006-784621
2026-09-07T
15:43:09+0000
1.137 km
极远距离
1.112934E-5 中风险 0.56
CDM_260907-140906-711006-784621
2026-09-07T
14:09:01+0000
1.175 km
极远距离
9.92097E-6 低风险 0.55
CDM_260907-071305-986806-784621
2026-09-07T
07:13:00+0000
1.035 km
极远距离
7.441395E-6 低风险 0.52
CDM_260907-135105-968306-784621
2026-09-07T
13:51:48+0000
1.363 km
极远距离
7.155022E-6 低风险 0.52
CDM_260907-214005-842406-784621
2026-09-07T
21:40:49+0000
1.495 km
极远距离
5.168356E-6 低风险 0.49
CDM_260903-051506-579806-784621
2026-09-03T
05:15:50+0000
2.242 km
极远距离
2.000047E-6 低风险 0.41